Ashtabula, OH

8:01 AM EST on December 17, 2017 (GMT -0500)
Ashtabula County

Weather History for KHZY - March, 2013

Change the Weather History Date:

Monday, March 18, 2013

  Actual Average (KGKJ) Record (KGKJ)
Temperature  
Mean Temperature 28 °F -  
Max Temperature 36 °F 44 °F 72 °F (2012)
Min Temperature 21 °F 21 °F 0 °F (1967)
Degree Days  
Heating Degree Days 36    
Moisture  
Dew Point 26 °F    
Average Humidity 78    
Maximum Humidity 92    
Minimum Humidity 61    
Precipitation  
Precipitation 0.20 in - - ()
Sea Level Pressure  
Sea Level Pressure 29.81 in    
Wind  
Wind Speed 12 mph (SE)    
Max Wind Speed 20 mph    
Max Gust Speed 31 mph    
Visibility 6 miles    
Events Rain , Snow    
Averages and records for this station are not official NWS values.
T = Trace of Precipitation, MM = Missing Value Source: NWS Daily Summary

Daily Weather History Graph

Daily Weather History Graph

Search for Another Location

Airport or City:

Trip Planner

Search our weather history database for the weather conditions in past years. The results will help you decide how hot, cold, wet, or windy it might be!

Date:

Astronomy

Mar. 18, 2013 Rise Set
Actual Time 7:29 AM EDT 7:33 PM EDT
Civil Twilight 7:01 AM EDT 8:00 PM EDT
Nautical Twilight 6:29 AM EDT 8:33 PM EDT
Astronomical Twilight 5:56 AM EDT 9:06 PM EDT
Moon 11:22 AM EDT (3/18) 1:36 AM EDT (3/18)
Length of Visible Light 12h 59m
Length of Day
12h 03m
Waxing Crescent, 40% of the Moon is Illuminated
Mar 18
Waxing Crescent
Mar 19
First Quarter
Mar 27
Full
Apr 3
Last Quarter
Apr 10
New

Hourly Weather History & Observations

Time (EDT) Temp. Windchill Dew Point Humidity Pressure Visibility Wind Dir Wind Speed Gust Speed Precip Events Conditions
12:53 AM 21.0 °F 14.6 °F 12.0 °F 68% 30.22 in 10.0 mi East 4.6 mph - N/A   Clear
1:53 AM 21.9 °F 14.5 °F 12.9 °F 68% 30.21 in 10.0 mi East 5.8 mph - N/A   Clear
2:53 AM 21.9 °F 14.5 °F 12.9 °F 68% 30.19 in 10.0 mi East 5.8 mph - N/A   Clear
3:53 AM 21.9 °F 14.5 °F 12.9 °F 68% 30.17 in 10.0 mi East 5.8 mph - N/A   Clear
4:53 AM 25.0 °F 16.3 °F 14.0 °F 63% 30.13 in 10.0 mi ESE 8.1 mph - N/A   Clear
5:53 AM 28.0 °F 16.5 °F 16.0 °F 61% 30.08 in 10.0 mi SE 15.0 mph 20.7 mph N/A   Clear
6:53 AM 28.9 °F 17.3 °F 17.1 °F 61% 30.06 in 10.0 mi SE 16.1 mph 25.3 mph N/A   Clear
7:53 AM 30.0 °F 19.1 °F 18.0 °F 61% 30.03 in 10.0 mi SE 15.0 mph 24.2 mph N/A   Partly Cloudy
8:53 AM 30.9 °F 20.7 °F 19.0 °F 61% 30.00 in 10.0 mi ESE 13.8 mph 23.0 mph N/A   Overcast
9:34 AM 30.2 °F 18.5 °F 23.0 °F 75% 29.93 in 5.0 mi SE 17.3 mph 24.2 mph 0.00 in Rain Light Freezing Rain
9:53 AM 30.9 °F 20.7 °F 24.1 °F 76% 29.96 in 4.0 mi SE 13.8 mph 21.9 mph 0.02 in Rain Light Freezing Rain
10:16 AM 30.2 °F 19.3 °F 26.6 °F 86% 29.92 in 3.0 mi SE 15.0 mph 20.7 mph 0.03 in Rain Light Freezing Rain
10:40 AM 32.0 °F 21.2 °F 26.6 °F 80% 29.90 in 4.0 mi SE 16.1 mph 24.2 mph 0.06 in Rain Light Freezing Rain
10:53 AM 32.0 °F 20.8 °F 26.1 °F 79% 29.92 in 4.0 mi SE 17.3 mph 31.1 mph 0.08 in Rain Light Freezing Rain
11:06 AM 32.0 °F 20.8 °F 26.6 °F 80% 29.88 in 5.0 mi SE 17.3 mph 28.8 mph 0.01 in Rain Light Freezing Rain
11:53 AM 32.0 °F 21.6 °F 27.0 °F 82% 29.88 in 6.0 mi SE 15.0 mph 28.8 mph 0.02 in Rain Light Freezing Rain
12:19 PM 33.8 °F 22.8 °F 26.6 °F 75% 29.85 in 8.0 mi SE 18.4 mph 29.9 mph 0.00 in Rain Light Rain
12:53 PM 33.1 °F 23.0 °F 27.0 °F 78% 29.88 in 7.0 mi SSE 15.0 mph 25.3 mph 0.01 in Rain Light Rain
1:05 PM 33.8 °F 23.2 °F 26.6 °F 75% 29.84 in 7.0 mi SSE 17.3 mph 27.6 mph 0.00 in Rain Light Rain
1:31 PM 33.8 °F 22.8 °F 28.4 °F 81% 29.83 in 10.0 mi SSE 18.4 mph 26.5 mph 0.00 in   Overcast
1:53 PM 33.1 °F 22.6 °F 27.0 °F 78% 29.84 in 8.0 mi SE 16.1 mph 27.6 mph 0.00 in   Overcast
2:20 PM 33.8 °F 24.8 °F 26.6 °F 75% 29.80 in 10.0 mi SSE 12.7 mph 27.6 mph N/A   Overcast
2:42 PM 33.8 °F 25.3 °F 28.4 °F 81% 29.79 in 10.0 mi SSE 11.5 mph 24.2 mph N/A   Overcast
2:53 PM 33.1 °F 23.0 °F 28.0 °F 82% 29.81 in 7.0 mi SE 15.0 mph 23.0 mph N/A   Overcast
3:22 PM 33.8 °F 24.3 °F 28.4 °F 81% 29.75 in 4.0 mi SE 13.8 mph 23.0 mph N/A   Haze
3:31 PM 33.8 °F 23.9 °F 28.4 °F 81% 29.75 in 5.0 mi SE 15.0 mph 24.2 mph N/A   Overcast
3:53 PM 34.0 °F 23.0 °F 28.9 °F 82% 29.75 in 6.0 mi SE 18.4 mph 26.5 mph N/A   Haze
4:35 PM 33.8 °F 23.9 °F 28.4 °F 81% 29.70 in 2.5 mi SSE 15.0 mph 29.9 mph 0.02 in Rain Light Rain
4:44 PM 33.8 °F 23.9 °F 28.4 °F 81% 29.69 in 3.0 mi SE 15.0 mph 25.3 mph 0.02 in Rain Light Rain
4:53 PM 34.0 °F 24.2 °F 28.9 °F 82% 29.71 in 3.0 mi SE 15.0 mph - 0.02 in   Haze
5:31 PM 35.6 °F 25.9 °F 30.2 °F 81% 29.66 in 6.0 mi SE 16.1 mph 25.3 mph 0.00 in Snow Light Snow
5:53 PM 35.1 °F 24.1 °F 30.0 °F 82% 29.68 in 6.0 mi SSE 19.6 mph 29.9 mph 0.00 in   Overcast
6:37 PM 35.6 °F 24.8 °F 30.2 °F 81% 29.65 in 3.0 mi SSE 19.6 mph 27.6 mph 0.02 in   Haze
6:45 PM 35.6 °F 25.2 °F 30.2 °F 81% 29.64 in 3.0 mi SSE 18.4 mph 28.8 mph 0.02 in   Overcast
6:53 PM 35.1 °F 24.5 °F 30.9 °F 85% 29.67 in 3.0 mi SSE 18.4 mph 28.8 mph 0.02 in   Overcast
7:29 PM 35.6 °F 25.5 °F 30.2 °F 81% 29.64 in 10.0 mi SSE 17.3 mph 25.3 mph N/A   Overcast
8:18 PM 35.6 °F 25.2 °F 30.2 °F 81% 29.64 in 2.5 mi SSE 18.4 mph 25.3 mph 0.00 in Snow Light Snow
8:34 PM 35.6 °F 25.5 °F 30.2 °F 81% 29.64 in 3.0 mi SSE 17.3 mph 27.6 mph 0.01 in Snow Light Snow
8:53 PM 36.0 °F 26.3 °F 30.9 °F 82% 29.67 in 6.0 mi SSE 16.1 mph 26.5 mph 0.01 in   Haze
9:28 PM 35.6 °F 25.9 °F 30.2 °F 81% 29.64 in 4.0 mi SSE 16.1 mph 24.2 mph N/A   Haze
9:42 PM 35.6 °F 25.5 °F 30.2 °F 81% 29.63 in 6.0 mi SSE 17.3 mph 23.0 mph 0.00 in   Haze
9:53 PM 36.0 °F 28.0 °F 30.9 °F 82% 29.66 in 7.0 mi South 11.5 mph 20.7 mph 0.00 in   Overcast
10:01 PM 35.6 °F 25.9 °F 30.2 °F 81% 29.64 in 9.0 mi SSE 16.1 mph 21.9 mph N/A   Overcast
10:13 PM 35.6 °F 27.5 °F 32.0 °F 87% 29.64 in 5.0 mi SSE 11.5 mph 20.7 mph 0.00 in Snow Light Snow
10:20 PM 35.6 °F 27.5 °F 32.0 °F 87% 29.63 in 4.0 mi SSE 11.5 mph 20.7 mph 0.00 in   Overcast
10:30 PM 35.6 °F 28.0 °F 32.0 °F 87% 29.64 in 4.0 mi SSE 10.4 mph - 0.00 in   Overcast
10:34 PM 35.6 °F 27.5 °F 32.0 °F 87% 29.64 in 4.0 mi South 11.5 mph - 0.00 in   Overcast
10:53 PM 36.0 °F 28.5 °F 32.0 °F 86% 29.66 in 4.0 mi South 10.4 mph - 0.01 in   Overcast
11:53 PM 35.1 °F - 33.1 °F 92% 29.70 in 5.0 mi Calm Calm - 0.01 in Rain Light Rain